EW8926 Weather Reports


Display with metric or nautical units.
time (UTC)temp
F
wind
direction
speed
MPH
gust
MPH
rain 1hr
in
rain 24hr
in
rain mn
in
humidity
%
barometer
mb
20260508172105 68 14 2.0 5.0 0.00 0.00 0.00 61 1015.8
20260508171604 68 7 2.0 3.0 0.00 0.00 0.00 61 1015.8
20260508171104 69 2 2.0 3.0 0.00 0.00 0.00 60 1015.8
20260508170604 69 339 2.0 5.0 0.00 0.00 0.00 62 1015.8
20260508170104 69 349 2.0 5.0 0.00 0.00 0.00 61 1015.8
20260508165605 69 14 2.0 3.0 0.00 0.00 0.00 60 1015.8
20260508165104 69 344 2.0 3.0 0.00 0.00 0.00 61 1015.8
20260508163104 70 313 2.0 2.0 0.00 0.00 0.00 59 1015.7
20260508162104 71 344 2.0 3.0 0.00 0.00 0.00 57 1015.7
20260508161103 71 344 2.0 5.0 0.00 0.00 0.00 57 1015.7
20260508160104 71 315 2.0 6.0 0.00 0.00 0.00 58 1015.7
20260508155604 71 314 2.0 7.0 0.00 0.00 0.00 59 1015.8
20260508155104 70 338 2.0 7.0 0.00 0.00 0.00 60 1015.8
20260508154604 70 26 2.0 3.0 0.00 0.00 0.00 62 1015.8
20260508154104 70 9 2.0 6.0 0.00 0.00 0.00 62 1015.8
20260508153605 70 319 2.0 5.0 0.00 0.00 0.00 62 1015.8
20260508153104 70 325 2.0 6.0 0.00 0.00 0.00 61 1015.8
20260508152604 70 38 2.0 3.0 0.00 0.00 0.00 63 1015.8
20260508152104 70 314 2.0 5.0 0.00 0.00 0.00 63 1015.8
20260508151606 70 315 2.0 6.0 0.00 0.00 0.00 63 1015.8
20260508151104 70 339 2.0 6.0 0.00 0.00 0.00 62 1015.9
20260508150604 71 324 2.0 7.0 0.00 0.00 0.00 61 1015.9
20260508150104 70 306 2.0 5.0 0.00 0.00 0.00 63 1015.9
20260508144604 70 318 2.0 5.0 0.00 0.00 0.00 64 1016.0
20260508144104 70 328 2.0 6.0 0.00 0.00 0.00 64 1016.1
20260508143607 70 313 1.0 5.0 0.00 0.00 0.00 64 1016.1
20260508143105 70 301 1.0 3.0 0.00 0.00 0.00 63 1016.1
20260508142604 69 311 1.0 2.0 0.00 0.00 0.00 65 1016.2
20260508141604 70 133 2.0 3.0 0.00 0.00 0.00 66 1016.3
20260508141104 70 133 2.0 2.0 0.00 0.00 0.00 64 1016.4
20260508140611 70 133 2.0 5.0 0.00 0.00 0.00 63 1016.4
20260508140104 70 80 1.0 5.0 0.00 0.00 0.00 66 1016.4
20260508135619 69 349 1.0 5.0 0.00 0.00 0.00 67 1016.5
20260508135104 69 335 2.0 5.0 0.00 0.00 0.00 66 1016.5
20260508134604 69 7 2.0 3.0 0.00 0.00 0.00 66 1016.5
20260508134109 69 62 2.0 3.0 0.00 0.00 0.00 66 1016.6
20260508133604 69 12 2.0 5.0 0.00 0.00 0.00 66 1016.6
20260508133107 69 70 2.0 5.0 0.00 0.00 0.00 65 1016.6
20260508131106 69 54 2.0 5.0 0.00 0.00 0.00 68 1016.8
20260508130604 69 51 2.0 5.0 0.00 0.00 0.00 69 1016.8
20260508125604 68 351 1.0 5.0 0.00 0.00 0.00 68 1016.9
20260508125104 68 301 2.0 5.0 0.00 0.00 0.00 68 1016.9
20260508123604 66 114 2.0 5.0 0.00 0.00 0.00 72 1017.0
20260508122111 67 307 2.0 6.0 0.00 0.00 0.00 70 1017.1
20260508121604 67 332 2.0 5.0 0.00 0.00 0.00 71 1017.1
20260508120116 66 205 2.0 5.0 0.00 0.00 0.00 71 1017.1
20260508115604 66 290 2.0 3.0 0.00 0.00 0.00 72 1017.0
20260508115104 66 251 1.0 5.0 0.00 0.00 0.00 72 1017.0
20260508114604 65 268 1.0 3.0 0.00 0.00 0.00 73 1017.0
20260508113606 65 265 2.0 3.0 0.00 0.00 0.00 73 1017.1
20260508113105 65 314 2.0 5.0 0.00 0.00 0.00 72 1017.1
20260508112604 64 9 2.0 5.0 0.00 0.00 0.00 74 1017.2
20260508112105 64 145 2.0 5.0 0.00 0.00 0.00 74 1017.3
20260508111605 64 219 2.0 3.0 0.00 0.00 0.00 74 1017.3
20260508110604 64 247 2.0 5.0 0.00 0.00 0.00 76 1017.4
20260508110104 64 136 1.0 3.0 0.00 0.00 0.00 76 1017.4
20260508105604 63 318 1.0 6.0 0.00 0.00 0.00 75 1017.4
20260508105111 63 313 2.0 6.0 0.00 0.00 0.00 77 1017.4
20260508104604 63 312 2.0 3.0 0.00 0.00 0.00 76 1017.4
20260508104104 63 328 2.0 3.0 0.00 0.00 0.00 78 1017.4
20260508103604 63 327 2.0 3.0 0.00 0.00 0.00 77 1017.4
20260508103104 63 337 2.0 3.0 0.00 0.00 0.00 77 1017.4
20260508102604 62 0 2.0 5.0 0.00 0.00 0.00 78 1017.4
20260508102104 62 315 2.0 2.0 0.00 0.00 0.00 79 1017.4
20260508101604 62 315 2.0 6.0 0.00 0.00 0.00 78 1017.4
20260508101104 62 329 2.0 8.0 0.00 0.00 0.00 78 1017.4
20260508100105 62 346 2.0 5.0 0.00 0.00 0.00 77 1017.4
20260508095604 62 300 2.0 6.0 0.00 0.00 0.00 76 1017.3
20260508095104 63 25 2.0 5.0 0.00 0.00 0.00 76 1017.3
20260508094604 63 328 2.0 6.0 0.00 0.00 0.00 77 1017.3
20260508094107 62 133 2.0 5.0 0.00 0.00 0.00 77 1017.3
20260508093104 62 329 2.0 5.0 0.00 0.00 0.00 78 1017.3
20260508092606 62 308 2.0 6.0 0.00 0.00 0.00 78 1017.2
20260508092104 62 160 2.0 5.0 0.00 0.00 0.00 79 1017.2
20260508091604 62 325 2.0 3.0 0.00 0.00 0.00 79 1017.2
20260508091104 61 304 2.0 5.0 0.00 0.00 0.00 80 1017.2
20260508090604 61 35 2.0 3.0 0.00 0.00 0.00 81 1017.2
20260508090104 60 316 2.0 5.0 0.00 0.00 0.00 81 1017.2
20260508085604 60 318 2.0 3.0 0.00 0.00 0.00 83 1017.1
20260508085104 59 98 3.0 3.0 0.00 0.00 0.00 83 1017.1
20260508084604 59 303 3.0 5.0 0.00 0.00 0.00 82 1017.1
20260508084105 59 322 2.0 6.0 0.00 0.00 0.00 82 1017.1
20260508083604 59 326 2.0 6.0 0.00 0.00 0.00 84 1017.1
20260508083105 59 312 2.0 6.0 0.00 0.00 0.00 83 1017.1
20260508082604 59 1 2.0 5.0 0.00 0.00 0.00 84 1017.0
20260508082105 59 328 2.0 6.0 0.00 0.00 0.00 83 1017.0
20260508081605 59 323 2.0 5.0 0.00 0.00 0.00 83 1017.0
20260508080604 59 311 2.0 5.0 0.00 0.00 0.00 83 1016.9
20260508075605 58 314 2.0 3.0 0.00 0.00 0.00 82 1016.8
20260508075119 59 314 2.0 5.0 0.00 0.00 0.00 82 1016.8
20260508074604 59 325 2.0 5.0 0.00 0.00 0.00 82 1016.8
20260508074105 59 325 1.0 5.0 0.00 0.00 0.00 83 1016.8
20260508073604 58 276 1.0 5.0 0.00 0.00 0.00 84 1016.8
20260508073105 58 307 2.0 3.0 0.00 0.00 0.00 85 1016.8
20260508072611 57 314 2.0 3.0 0.00 0.00 0.00 85 1016.7
20260508072105 57 314 1.0 5.0 0.00 0.00 0.00 86 1016.7
20260508071604 57 312 1.0 2.0 0.00 0.00 0.00 86 1016.7
20260508071104 56 312 2.0 5.0 0.00 0.00 0.00 86 1016.7
20260508070605 56 312 2.0 2.0 0.00 0.00 0.00 88 1016.7
20260508065604 56 256 2.0 3.0 0.00 0.00 0.00 88 1016.6
20260508065104 55 291 2.0 6.0 0.00 0.00 0.00 88 1016.6
20260508064605 55 180 2.0 3.0 0.00 0.00 0.00 89 1016.6
20260508064104 54 313 2.0 5.0 0.00 0.00 0.00 90 1016.5
20260508063604 54 314 2.0 5.0 0.00 0.00 0.00 90 1016.5
20260508063106 54 303 1.0 5.0 0.00 0.00 0.00 90 1016.5
20260508062604 53 310 0.0 6.0 0.00 0.00 0.00 90 1016.4
20260508062104 53 132 0.0 5.0 0.00 0.00 0.00 92 1016.4
20260508061604 52 130 0.0 0.0 0.00 0.00 0.00 93 1016.4
20260508061111 52 130 1.0 2.0 0.00 0.00 0.00 93 1016.3
20260508060604 52 130 1.0 2.0 0.00 0.00 0.00 93 1016.2
20260508060104 51 130 1.0 2.0 0.00 0.00 0.00 93 1016.2
20260508055604 51 130 0.0 3.0 0.00 0.00 0.00 93 1016.3
20260508055104 51 130 1.0 2.0 0.00 0.00 0.00 94 1016.3
20260508054604 51 130 1.0 3.0 0.00 0.00 0.00 94 1016.3
20260508054106 50 130 2.0 2.0 0.00 0.00 0.00 94 1016.2
20260508053104 50 129 2.0 2.0 0.00 0.00 0.00 95 1016.2
20260508052604 49 129 2.0 3.0 0.00 0.00 0.00 95 1016.1
20260508051609 49 129 2.0 3.0 0.00 0.00 0.00 95 1016.1
20260508050604 49 130 2.0 3.0 0.00 0.00 0.00 95 1015.8
20260508045604 48 154 1.0 2.0 0.00 0.00 0.00 95 1015.6
20260508045104 48 154 1.0 2.0 0.00 0.00 0.00 94 1015.5
20260508044604 48 154 1.0 2.0 0.00 0.00 0.00 94 1015.5
20260508044104 48 154 1.0 2.0 0.00 0.00 0.00 94 1015.5
20260508043104 48 154 1.0 2.0 0.00 0.00 0.00 94 1015.5
20260508042604 48 154 0.0 3.0 0.00 0.00 0.00 94 1015.4
20260508042106 48 154 2.0 2.0 0.00 0.00 0.00 94 1015.4
20260508041604 48 154 2.0 2.0 0.00 0.00 0.00 94 1015.4
20260508041104 48 154 1.0 2.0 0.00 0.00 0.00 93 1015.3
20260508040104 48 141 1.0 3.0 0.00 0.00 0.00 93 1015.3
20260508035104 49 170 1.0 2.0 0.00 0.00 0.00 94 1015.2
20260508034604 49 170 0.0 2.0 0.00 0.00 0.00 94 1015.2
20260508034104 49 170 0.0 2.0 0.00 0.00 0.00 94 1015.2
20260508033104 49 245 0.0 2.0 0.00 0.00 0.00 94 1015.2
20260508032106 49 245 0.0 1.0 0.00 0.00 0.00 94 1015.2
20260508031604 48 245 0.0 2.0 0.00 0.00 0.00 94 1015.2
20260508031104 48 123 0.0 0.0 0.00 0.00 0.00 93 1015.2
20260508030604 48 123 0.0 0.0 0.00 0.00 0.00 93 1015.2
20260508025604 48 123 0.0 0.0 0.00 0.00 0.00 93 1015.3
20260508025104 48 123 0.0 2.0 0.00 0.00 0.00 93 1015.3
20260508024605 48 123 0.0 0.0 0.00 0.00 0.00 93 1015.3
20260508024104 49 123 0.0 0.0 0.00 0.00 0.00 93 1015.3
20260508023104 49 123 1.0 2.0 0.00 0.00 0.00 93 1015.3
20260508022611 49 123 1.0 2.0 0.00 0.00 0.00 93 1015.3
20260508022104 49 123 2.0 2.0 0.00 0.00 0.00 93 1015.3
20260508021605 49 123 2.0 2.0 0.00 0.00 0.00 93 1015.3
20260508021107 49 123 2.0 2.0 0.00 0.00 0.00 93 1015.3
20260508020607 49 123 2.0 2.0 0.00 0.00 0.00 93 1015.3
20260508020105 49 123 2.0 3.0 0.00 0.00 0.00 92 1015.3
20260508015604 49 123 2.0 2.0 0.00 0.00 0.00 92 1015.2
20260508014604 49 123 2.0 2.0 0.00 0.00 0.00 92 1015.2
20260508014106 49 123 2.0 5.0 0.00 0.00 0.00 92 1015.2
20260508013604 49 130 1.0 3.0 0.00 0.00 0.00 93 1015.2
20260508012104 50 130 1.0 1.0 0.00 0.00 0.00 93 1015.3
20260508011104 50 130 1.0 2.0 0.00 0.00 0.00 93 1015.3
20260508010105 50 131 1.0 1.0 0.00 0.00 0.00 93 1015.3
20260508005604 50 131 1.0 2.0 0.00 0.00 0.00 93 1015.2
20260508004604 50 131 0.0 2.0 0.00 0.00 0.00 93 1015.2
20260508002605 51 131 0.0 2.0 0.00 0.00 0.00 93 1015.4
20260508002106 51 131 0.0 2.0 0.00 0.00 0.00 93 1015.4
20260508001604 51 131 0.0 2.0 0.00 0.00 0.00 93 1015.4
20260508001104 51 131 1.0 0.0 0.00 0.00 0.00 93 1015.5
20260508000604 51 131 1.0 2.0 0.00 0.00 0.00 93 1015.5
20260508000104 51 131 1.0 2.0 0.00 0.00 0.00 93 1015.5
20260507235604 51 131 1.0 2.0 0.00 0.00 0.00 93 1015.5
20260507235104 51 131 1.0 3.0 0.00 0.00 0.00 93 1015.5
20260507234608 51 131 1.0 2.0 0.00 0.00 0.00 93 1015.5
20260507234103 51 131 2.0 2.0 0.00 0.00 0.00 92 1015.6
20260507233604 51 131 2.0 2.0 0.00 0.00 0.00 92 1015.6
20260507233104 51 131 2.0 3.0 0.00 0.00 0.00 92 1015.6
20260507232612 51 131 2.0 3.0 0.00 0.00 0.00 91 1015.6
20260507232104 52 131 1.0 3.0 0.00 0.00 0.00 90 1015.6
20260507231604 52 151 1.0 3.0 0.00 0.00 0.00 92 1015.6
20260507231107 52 151 1.0 2.0 0.00 0.00 0.00 91 1015.6
20260507230104 52 151 2.0 2.0 0.00 0.00 0.00 91 1015.6
20260507225604 52 151 2.0 2.0 0.00 0.00 0.00 91 1015.7
20260507225104 53 151 1.0 2.0 0.00 0.00 0.00 91 1015.7
20260507224607 53 151 1.0 5.0 0.00 0.00 0.00 91 1015.7
20260507223605 53 151 0.0 3.0 0.00 0.00 0.00 91 1015.6
20260507223104 53 151 0.0 2.0 0.00 0.00 0.00 90 1015.6
20260507222109 53 151 2.0 2.0 0.00 0.00 0.00 90 1015.5
20260507221604 53 151 2.0 2.0 0.00 0.00 0.00 89 1015.5
20260507221104 53 151 2.0 2.0 0.00 0.00 0.00 89 1015.4
20260507220604 53 151 2.0 2.0 0.00 0.00 0.00 88 1015.3
20260507220105 54 151 1.0 3.0 0.00 0.00 0.00 87 1015.3
20260507215604 54 155 0.0 2.0 0.00 0.00 0.00 88 1015.2
20260507215104 55 155 0.0 2.0 0.00 0.00 0.00 87 1015.1
20260507214604 55 155 0.0 1.0 0.00 0.00 0.00 87 1015.1
20260507213604 55 155 0.0 2.0 0.00 0.00 0.00 87 1015.2
20260507212604 55 155 0.0 0.0 0.00 0.00 0.00 87 1015.1
20260507212105 55 155 0.0 2.0 0.00 0.00 0.00 87 1015.1
20260507211106 56 155 0.0 2.0 0.00 0.00 0.00 87 1015.1
20260507210604 56 155 0.0 0.0 0.00 0.00 0.00 86 1015.1
20260507210104 56 155 0.0 0.0 0.00 0.00 0.00 86 1015.1
20260507205604 56 155 0.0 0.0 0.00 0.00 0.00 85 1015.2
20260507205104 56 155 0.0 0.0 0.00 0.00 0.00 85 1015.2
20260507204605 56 155 0.0 2.0 0.00 0.00 0.00 85 1015.2
20260507204104 56 155 1.0 2.0 0.00 0.00 0.00 85 1015.1
20260507203603 56 155 1.0 2.0 0.00 0.00 0.00 85 1015.1
20260507203104 56 155 1.0 2.0 0.00 0.00 0.00 85 1015.1
20260507202604 56 155 0.0 2.0 0.00 0.00 0.00 85 1015.0
20260507201604 57 155 0.0 1.0 0.00 0.00 0.00 84 1014.9
20260507201112 57 155 0.0 2.0 0.00 0.00 0.00 84 1014.8
20260507200104 57 155 0.0 2.0 0.00 0.00 0.00 83 1014.7
20260507195604 57 155 0.0 1.0 0.00 0.00 0.00 82 1014.6
20260507195105 57 155 1.0 2.0 0.00 0.00 0.00 82 1014.6
20260507194604 58 155 1.0 2.0 0.00 0.00 0.00 81 1014.6
20260507194105 58 155 2.0 2.0 0.00 0.00 0.00 81 1014.5
20260507193604 58 155 2.0 2.0 0.00 0.00 0.00 80 1014.4
20260507193104 58 155 1.0 2.0 0.00 0.00 0.00 80 1014.4
20260507192604 58 155 0.0 2.0 0.00 0.00 0.00 79 1014.3
20260507192105 59 149 0.0 2.0 0.00 0.00 0.00 79 1014.3
20260507191604 59 143 0.0 2.0 0.00 0.00 0.00 79 1014.3
20260507191119 59 143 1.0 1.0 0.00 0.00 0.00 78 1014.2
20260507190603 59 143 1.0 2.0 0.00 0.00 0.00 77 1014.2
20260507190104 60 143 1.0 2.0 0.00 0.00 0.00 76 1014.2
20260507185604 60 143 0.0 2.0 0.00 0.00 0.00 75 1014.1
20260507185119 60 143 2.0 2.0 0.00 0.00 0.00 75 1014.1
20260507184619 60 143 2.0 2.0 0.00 0.00 0.00 74 1014.1
20260507184104 61 143 2.0 3.0 0.00 0.00 0.00 73 1014.0
20260507183604 61 147 2.0 5.0 0.00 0.00 0.00 72 1013.9
20260507182608 62 138 2.0 5.0 0.00 0.00 0.00 71 1013.9
20260507182105 62 155 2.0 5.0 0.00 0.00 0.00 71 1013.9
20260507181604 62 143 2.0 5.0 0.00 0.00 0.00 70 1013.9
20260507181104 63 138 2.0 5.0 0.00 0.00 0.00 70 1013.9
20260507180620 63 144 2.0 3.0 0.00 0.00 0.00 69 1013.9
20260507175604 63 153 3.0 6.0 0.00 0.00 0.00 69 1013.9
20260507174603 64 138 3.0 7.0 0.00 0.00 0.00 67 1013.9
20260507174104 64 143 3.0 6.0 0.00 0.00 0.00 66 1013.7
20260507173104 65 130 3.0 7.0 0.00 0.00 0.00 65 1013.6